Location: Saluda
(35.2377°N, 82.3468°W)
Time: 13:01:50
(UTC+00:00)

Altair - Visible Passes

Search period start: 05 October 2022 00:00
Search period end: 15 October 2022 00:00
Orbit: 1501 x 1682 km, 47.2° (Epoch: 05 October)

Date Brightness Start Highest point End Pass type
(mag) Time Alt. Az. Time Alt. Az. Time Alt. Az.
05 Oct 8.6 07:41:17 31° ESE 07:41:17 31° ESE 07:48:44 10° ENE visible
05 Oct 7.5 09:39:21 33° WSW 09:44:31 83° NW 09:54:34 10° NE visible
06 Oct 8.9 07:17:52 26° ESE 07:17:52 26° ESE 07:23:16 10° ENE visible
06 Oct 7.4 09:15:54 47° SW 09:19:18 88° NW 09:29:19 10° NE visible
07 Oct 9.2 06:54:22 19° E 06:54:22 19° E 06:57:46 10° ENE visible
07 Oct 7.4 08:52:24 66° SW 08:54:06 86° SE 09:04:04 10° NE visible
07 Oct 8.1 10:50:29 10° W 10:59:46 47° NNW 11:09:23 10° ENE visible
08 Oct 9.5 06:30:48 14° E 06:30:48 14° E 06:32:13 10° ENE visible
08 Oct 7.4 08:28:51 81° SSE 08:28:54 81° SE 08:38:48 10° ENE visible
08 Oct 8.0 10:26:53 17° W 10:34:26 48° NNW 10:44:05 10° ENE visible
09 Oct 7.7 08:05:14 65° E 08:05:14 65° E 08:13:33 10° ENE visible
09 Oct 7.9 10:03:16 24° W 10:09:06 50° NNW 10:18:46 10° NE visible
10 Oct 8.1 07:41:36 48° ENE 07:41:36 48° ENE 07:48:18 10° ENE visible
10 Oct 7.9 09:39:37 34° WNW 09:43:47 52° NNW 09:53:29 10° NE visible
11 Oct 8.6 07:17:55 35° ENE 07:17:55 35° ENE 07:23:01 10° ENE visible
11 Oct 7.8 09:15:56 45° WNW 09:18:29 55° NNW 09:28:12 10° NE visible
12 Oct 9.0 06:54:12 25° ENE 06:54:12 25° ENE 06:57:44 10° ENE visible
12 Oct 7.6 08:52:14 55° NW 08:53:11 57° NNW 09:02:56 10° NE visible
12 Oct 8.4 10:50:41 10° WNW 10:59:46 41° N 11:09:08 10° ENE visible
13 Oct 9.4 06:30:28 18° ENE 06:30:28 18° ENE 06:32:27 10° ENE visible
13 Oct 7.7 08:28:29 59° N 08:28:29 59° N 08:37:40 10° NE visible
13 Oct 8.3 10:26:31 14° WNW 10:34:24 41° N 10:43:44 10° ENE visible
14 Oct 9.7 06:06:43 12° ENE 06:06:43 12° ENE 06:07:09 10° ENE visible
14 Oct 7.9 08:04:44 53° NNE 08:04:44 53° NNE 08:12:24 10° NE visible
14 Oct 8.3 10:02:45 20° WNW 10:09:02 41° N 10:18:21 10° ENE visible
